OpenBCM V1.08-5-g2f4a (Linux)

Packet Radio Mailbox

IZ3LSV

[San Dona' di P. JN]

 Login: GUEST





  
I0OJJ  > KEPS     10.10.25 02:25l 316 Lines 15004 Bytes #176 (0) @ AMSAT
BID : ORB25283.1
Subj: 2Line Orbital Elements 25283.AMSAT
Path: IZ3LSV<IK6IHL<IK7NXU<HB9ON<DK0WUE<PD0LPM<IR0AAB<I0OJJ
Sent: 251010/0021z @:I0OJJ.ITA.EU [Rome] obcm1.08-11-2-gbfe9
From: I0OJJ @ I0OJJ.ITA.EU (Gustavo)
To:   KEPS @ AMSAT
X-Info: This message was generated automatically


QST de W1STR

AMSAT Orbital Elements for Amateur Satellites in TLE Format
From Orbital Analysis Office
New England Sci-Tech STEM Education Center
Natick MA October 10, 2025
To all radio amateurs


These element sets describe the orbits of various satellites 
in use by the amateur radio community. For details see:
www.amsat.org/keplerian-elements-formats/

A daily update of element sets is available at:
www.amsat.org/tle/daily-bulletin.txt
or without bulletin text:
www.amsat.org/tle/dailytle.txt


AO-07
1 07530U 74089B   25282.51783594 -.00000044  00000-0  17124-4 0  9992
2 07530 101.9989 288.1000 0011916 249.4144 262.7689 12.53692327329104
UO-11
1 14781U 84021B   25282.86041836  .00002256  00000-0  24074-3 0  9996
2 14781  97.7708 246.9313 0006200 299.5272  60.5327 14.89814073219845
AO-27
1 22825U 93061C   25282.45524307  .00000156  00000-0  76404-4 0  9994
2 22825  98.7237 344.5418 0009451 113.5168 246.7008 14.30842243671147
FO-29
1 24278U 96046B   25282.52437852 -.00000015  00000-0  20192-4 0  9998
2 24278  98.5539 160.2593 0350469  26.7396 335.1348 13.53256416439267
NOAA-15
1 25338U 98030A   25282.81470074  .00000181  00000-0  91929-4 0  9995
2 25338  98.5293 304.9737 0010310   8.0276 352.1068 14.27032474425583
GO-32
1 25397U 98043D   25282.43148375  .00000103  00000-0  64798-4 0  9996
2 25397  98.9855 264.1766 0000999 165.2783 194.8424 14.24349927415639
ISS
1 25544U 98067A   25282.81843845  .00010927  00000-0  20052-3 0  9991
2 25544  51.6321  98.9411 0000937 229.8853 130.2053 15.49805738532945
NO-44
1 26931U 01043C   25282.40281753  .00000235  00000-0  11904-3 0  9996
2 26931  67.0506 172.8497 0007120 273.8069  86.2218 14.31801489254546
SO-50
1 27607U 02058C   25282.70872111  .00002042  00000-0  26470-3 0  9993
2 27607  64.5536 183.4437 0068007 308.6336  50.8694 14.82056768227328
CO-55
1 27844U 03031E   25282.51500958  .00000424  00000-0  20350-3 0  9997
2 27844  98.6790 289.2386 0009405 186.8264 173.2788 14.24099457155997
CO-57
1 27848U 03031J   25281.95853935  .00000383  00000-0  18799-3 0  9992
2 27848  98.6820 288.6021 0008929 206.8911 153.1806 14.23419168155639
RS-22
1 27939U 03042A   25282.86229161  .00001527  00000-0  24760-3 0  9990
2 27939  98.3380  95.3773 0011140 348.2765 141.8756 14.72695839178696
CO-58
1 28895U 05043F   25282.87163058  .00002238  00000-0  36864-3 0  9996
2 28895  98.2675  68.9081 0013316 280.1147  79.8557 14.71502620 64920
CO-65
1 32785U 08021C   25282.87313003  .00007290  00000-0  50543-3 0  9998
2 32785  97.8008 255.1392 0010392 148.7120 211.4727 15.05878297947471
CO-66
1 32791U 08021J   25282.48080012  .00016671  00000-0  72689-3 0  9991
2 32791  97.7403 265.5807 0006497 100.9466 259.2500 15.22236821949017
RS-30
1 32953U 08025A   25282.81050744  .00000038  00000-0  20445-3 0  9994
2 32953  82.5036 151.1867 0019504 136.0626 224.2009 12.43169209788582
NOAA-19
1 33591U 09005A   25282.81364172  .00000072  00000-0  62144-4 0  9996
2 33591  98.9849 348.1333 0014053  22.7777 337.4016 14.13416350859116
SRMSAT
1 37841U 11058D   25282.61055557  .00000473  00000-0  11315-3 0  9999
2 37841  19.9710 136.0661 0011718 327.3647  56.9653 14.11478086722370
ZACUBE-1
1 39417U 13066B   25282.42382169  .00007777  00000-0  65117-3 0  9995
2 39417  97.7943 238.9621 0042951   7.9515 352.2379 14.97995654643142
Delfi-N3xt
1 39428U 13066N   25282.72275326  .00011101  00000-0  10782-2 0  9999
2 39428  97.8296 199.0913 0080342 319.1864  40.3353 14.90349696637252
GOMX-1
1 39430U 13066Q   25282.84683247  .00002578  00000-0  40048-3 0  9997
2 39430  97.6675 133.9645 0131627 160.3100 200.3257 14.68178026633164
LO-74
1 39440U 13066AA  25282.80264670  .00005221  00000-0  51485-3 0  9994
2 39440  97.8604 226.6448 0062125 135.0819 225.5450 14.90987282639642
AO-73
1 39444U 13066AE  25282.56967531  .00011294  00000-0  79955-3 0  9996
2 39444  97.7981 245.1697 0039378 337.8433  22.1089 15.04370279641913
DTUSAT-2
1 40030U 14033W   25282.43213301  .00010078  00000-0  62048-3 0  9993
2 40030  98.0691 260.3760 0009378  21.6097 338.5525 15.10182375614777
EO-80
1 40032U 14033Y   25282.51207154  .00008913  00000-0  54816-3 0  9992
2 40032  98.0572 259.9454 0006580 321.0712  39.0041 15.10276898614763
LILACSAT-2
1 40908U 15049K   25282.80993058  .00015254  00000-0  35742-3 0  9992
2 40908  97.4992 306.3191 0010570  83.9236 276.3214 15.42133496557044
IO-86
1 40931U 15052B   25151.18580175  .00001241  00000-0  78118-4 0  9996
2 40931   6.0006  24.0987 0012733 338.8432  21.1169 14.78805930523159
Horyu-4
1 41340U 16012D   25282.61622209  .00040527  00000-0  86144-3 0  9993
2 41340  30.9966  27.8661 0003564 255.4240 104.6012 15.43743416531615
Lapan A3
1 41603U 16040E   25282.84654193  .00004295  00000-0  14642-3 0  9994
2 41603  97.1425 282.7590 0010583 181.6004 178.5206 15.30826591516487
CAS-2T
1 41847U 16066G   25282.59774330  .00002393  00000-0  34590-3 0  9991
2 41847  98.4101 355.9634 0345117 169.0703 191.8240 14.43854688468623
CAS-4B
1 42759U 17034B   25282.52110622  .01051895  64088-3  11533-2 0  9993
2 42759  42.9928 301.9759 0015067  81.2665 278.9922 16.08709137461837
CAS-4A
1 42761U 17034D   25281.34159269  .04203186  90411-5  12507-2 0  9993
2 42761  42.9927 303.5081 0008135  81.2710 278.9099 16.26032227461692
TechnoSat
1 42829U 17042E   25282.41789000  .00004953  00000-0  37484-3 0  9997
2 42829  97.3989  85.4452 0017851 229.3958 130.5716 15.02628010449016
AO-91
1 43017U 17073E   25282.14210608  .00010085  00000-0  49061-3 0  9991
2 43017  97.5022 149.8756 0167904 111.5319 250.3899 15.06948891427505
S-Net D
1 43186U 18014G   25282.70104487  .00006243  00000-0  35489-3 0  9993
2 43186  97.5481 184.3626 0009478 152.6487 207.5245 15.13207296420837
S-Net B
1 43187U 18014H   25282.70810029  .00006239  00000-0  35479-3 0  9994
2 43187  97.5489 184.3470 0010341 148.7604 211.4243 15.13185443420832
S-Net A
1 43188U 18014J   25282.30423972  .00006471  00000-0  36765-3 0  9995
2 43188  97.5497 184.1138 0010142 150.9566 209.2231 15.13207201420774
S-Net C
1 43189U 18014K   25282.31405769  .00006512  00000-0  37011-3 0  9992
2 43189  97.5515 184.1583 0011878 145.2819 214.9189 15.13174088419325
Ten-Koh
1 43677U 18084G   25282.46951977  .00002763  00000-0  22021-3 0  9993
2 43677  98.0744  99.5568 0008234 207.5831 152.4956 15.01221875378525
PO-101
1 43678U 18084H   25282.64526125  .00003316  00000-0  27921-3 0  9996
2 43678  98.1063 103.5282 0007383 229.6395 130.4182 14.98950586378669
QO-100
1 43700U 18090A   25282.78214722  .00000144  00000-0  00000+0 0  9992
2 43700   0.0174 167.5684 0002103  74.7552  83.6998  1.00271835 25165
MinXSS-2
1 43758U 18099A   25282.62919488  .00022177  00000-0  75572-3 0  9998
2 43758  97.4883 349.3051 0011719  88.1855 272.0727 15.30328871375603
AO-95
1 43770U 18099N   25282.44377412  .00013119  00000-0  61494-3 0  9991
2 43770  97.4776 339.2722 0011109 142.8172 217.3834 15.19762277375042
SNUSat 2
1 43782U 18099AA  25282.10070610  .00012598  00000-0  64590-3 0  9997
2 43782  97.4450 334.6571 0013023  93.6381 266.6342 15.16621567374905
SnugLite
1 43784U 18099AC  25282.11744923  .00014924  00000-0  69261-3 0  9990
2 43784  97.4267 334.5165 0004861  95.1660 265.0130 15.20118336375086
ITASat 1
1 43786U 18099AE  25282.38189007  .00008068  00000-0  43841-3 0  9995
2 43786  97.4422 334.0657 0014927 140.8414 219.3901 15.14664953374880
EAGLET 1
1 43790U 18099AJ  25282.38718196  .00004911  00000-0  30385-3 0  9999
2 43790  97.4618 333.5859 0013115 127.2010 233.0419 15.10198002374441
ESEO
1 43792U 18099AL  25282.51567027  .00002226  00000-0  16890-3 0  9993
2 43792  97.4354 325.3004 0014724 106.1151 254.1697 15.03119370374131
JO-97
1 43803U 18099AX  25282.59534428  .00016180  00000-0  66815-3 0  9999
2 43803  97.4518 340.7216 0008259  82.2509 277.9665 15.24067732375337
Suomi 100
1 43804U 18099AY  25282.42897118  .00012849  00000-0  57988-3 0  9999
2 43804  97.4584 339.4655 0013108  85.2518 275.0214 15.21052117375208
ISAT
1 43879U 18111D   25282.28998369  .00032428  00000-0  92770-3 0  9993
2 43879  97.5875 199.7364 0010637 116.6134 243.6200 15.35842695372335
UWE-4
1 43880U 18111E   25282.50462404  .00022929  00000-0  78152-3 0  9999
2 43880  97.5817 197.4751 0012894 130.8055 229.4305 15.30301712372248
Sparrow
1 43881U 18111F   25282.29128284  .00036504  00000-0  98902-3 0  9990
2 43881  97.6047 203.1382 0007870 139.3257 220.8576 15.37539627372448
Prox-1
1 44339U 19036A   25282.49224753  .00013787  00000-0  16304-2 0  9999
2 44339  23.9979 339.4889 0007001  32.6792 327.4139 14.82836189336118
Taurus 1
1 44530U 19059C   25282.85369623  .00008096  00000-0  14312-2 0  9997
2 44530  98.6209  68.2781 0008843  17.1721 342.9779 14.67648010321864
Duchifat 3
1 44854U 19089C   25282.41936485  .00129141  00000-0  13319-2 0  9998
2 44854  36.9363 293.3488 0007688 193.5797 166.4759 15.63438669321964
TO-108
1 44881U 19093C   25282.79823089  .00001354  00000-0  16132-3 0  9991
2 44881  97.7825 355.8463 0013561 184.4964 175.6132 14.85880905314226
FloripaSat 1
1 44885U 19093G   25282.83102905  .00007076  00000-0  57292-3 0  9996
2 44885  97.8102  10.7676 0010474 165.9127 194.2390 15.00007859315060
RS-44
1 44909U 19096E   25282.35947374  .00000030  00000-0  75205-4 0  9998
2 44909  82.5211 146.3936 0217826  11.1050 349.4746 12.79744415270261
UPMSat 2
1 46276U 20061E   25282.15634763  .02944532  23645-5  90563-3 0  9998
2 46276  97.2200   2.9169 0007993 260.4612  99.5777 16.26695626284684
SALSAT
1 46495U 20068K   25282.51294742  .00010218  00000-0  41483-3 0  9992
2 46495  97.8739 266.4147 0013104  97.6995 262.5730 15.24726895277096
